This is the latest recevied weather packets stored in our database for station/object KB4MOX. If no packets are shown the sender has not sent any weather packets the latest 10 day(s).
| Time | Temp. | Humidity | Pressure | Rain* | Wind** | Luminosity | Snow |
|---|---|---|---|---|---|---|---|
| 1778126873 | 20.56° C | 88% | 1013.1 hPa | 1.78 mm | - | 0 W/m² | - |
| 1778126569 | 20.56° C | 87% | 1013.5 hPa | 1.78 mm | - | 0 W/m² | - |
| 1778126265 | 20.56° C | 86% | 1013.5 hPa | 1.78 mm | - | 0 W/m² | - |
| 1778125960 | 20.56° C | 86% | 1013.6 hPa | 1.78 mm | - | 0 W/m² | - |
| 1778125658 | 20.56° C | 85% | 1013.6 hPa | 3.05 mm | - | 0 W/m² | - |
| 1778125355 | 21.11° C | 83% | 1013.9 hPa | 1.27 mm | - | 0 W/m² | - |
| 1778125053 | 21.67° C | 81% | 1014.1 hPa | 0 mm | - | 0 W/m² | - |
| 1778124751 | 22.22° C | 76% | 1014.2 hPa | 0 mm | - | 0 W/m² | - |
| 1778124448 | 22.78° C | 71% | 1013.6 hPa | 0 mm | - | 0 W/m² | - |
| 1778124144 | 22.78° C | 69% | 1013.6 hPa | 0 mm | - | 0 W/m² | - |
| 1778123841 | 22.78° C | 70% | 1013.5 hPa | 0 mm | - | 0 W/m² | - |
| 1778123537 | 22.78° C | 68% | 1013.3 hPa | 0 mm | - | 0 W/m² | - |
| 1778123234 | 22.78° C | 69% | 1013.6 hPa | 0 mm | - | 0 W/m² | - |
| 1778122932 | 23.33° C | 66% | 1013.3 hPa | 0 mm | - | 0 W/m² | - |
| 1778122629 | 23.89° C | 64% | 1013.3 hPa | 0 mm | - | 0 W/m² | - |
| 1778122326 | 23.89° C | 63% | 1013.1 hPa | 0 mm | - | 0 W/m² | - |
| 1778122024 | 23.89° C | 62% | 1013.3 hPa | 0 mm | - | 0 W/m² | - |
| 1778121721 | 23.89° C | 64% | 1013.4 hPa | 0 mm | - | 0 W/m² | - |
| 1778121416 | 23.89° C | 63% | 1013.4 hPa | 0 mm | - | 0 W/m² | - |
| 1778121114 | 23.89° C | 62% | 1013.4 hPa | 0 mm | - | 0 W/m² | - |
| 1778120810 | 23.89° C | 63% | 1013.1 hPa | 0 mm | - | 0 W/m² | - |
| 1778120500 | 23.89° C | 63% | 1013.2 hPa | 0 mm | - | 0 W/m² | - |
| 1778120197 | 23.89° C | 62% | 1013 hPa | 0 mm | - | 0 W/m² | - |
| 1778119892 | 24.44° C | 61% | 1012.7 hPa | 0 mm | - | 0 W/m² | - |
| 1778119591 | 24.44° C | 61% | 1012.8 hPa | 0 mm | - | 0 W/m² | - |
* Rain latest hour (hover to see other rain measurements)
** Current wind speed in m/s (hover to see current wind gust speed)